Location: Kergonan
(48.2337°N, 4.5518°W)
Time: 21:28:52
(UTC+00:00)

NOSS 2-2 (E) - Pass Details

Date: 18 January 2020
Orbit: 484 x 1723 km, 63.3° (Epoch: 03 February)

Event Time Altitude Azimuth Distance (km) Brightness Sun altitude
Exits shadow 05:39:31 25° 177° (S) 1,032 4.7 -23.3°
Maximum altitude 05:41:10 41° 122° (ESE) 751 4.4 -23.0°
Drops below altitude 10° 05:45:01 10° 52° (NE) 1,890 6.6 -22.3°
Sets 05:47:33 0° 45° (NE) 2,934 7.6 -21.9°
